TimeMDT,TemperatureF,Dew PointF,Humidity,Sea Level PressureIn,VisibilityMPH,Wind Direction,Wind SpeedMPH,Gust SpeedMPH,PrecipitationIn,Events,Conditions,WindDirDegrees,DateUTC
12:21 AM,21.2,17.6,86,30.26,10.0,WSW,5.8,-,N/A,,Overcast,240,2012-10-26 06:21:00
12:53 AM,21.0,18.0,88,30.39,10.0,WSW,6.9,-,N/A,,Overcast,240,2012-10-26 06:53:00
1:53 AM,19.9,17.1,89,30.38,10.0,SSW,4.6,-,N/A,,Overcast,210,2012-10-26 07:53:00
2:53 AM,19.0,16.0,88,30.40,10.0,WSW,4.6,-,N/A,,Mostly Cloudy,240,2012-10-26 08:53:00
3:28 AM,17.6,14.0,86,30.27,10.0,SW,5.8,-,N/A,,Mostly Cloudy,230,2012-10-26 09:28:00
3:53 AM,16.0,12.9,88,30.41,10.0,West,5.8,-,N/A,,Scattered Clouds,260,2012-10-26 09:53:00
4:53 AM,16.0,12.0,84,30.43,10.0,West,8.1,-,N/A,,Clear,270,2012-10-26 10:53:00
5:53 AM,15.1,10.9,84,30.45,10.0,Calm,Calm,-,N/A,,Clear,0,2012-10-26 11:53:00
6:53 AM,12.0,10.0,92,30.48,10.0,South,4.6,-,N/A,,Clear,190,2012-10-26 12:53:00
7:53 AM,14.0,10.9,88,30.49,10.0,SSW,4.6,-,N/A,,Scattered Clouds,200,2012-10-26 13:53:00
8:53 AM,19.0,15.1,85,30.46,10.0,Variable,3.5,-,N/A,,Clear,0,2012-10-26 14:53:00
9:53 AM,24.1,16.0,71,30.45,10.0,West,13.8,-,N/A,,Clear,260,2012-10-26 15:53:00
10:53 AM,27.0,16.0,63,30.43,10.0,West,8.1,16.1,N/A,,Clear,260,2012-10-26 16:53:00
11:53 AM,30.0,16.0,56,30.41,10.0,West,10.4,-,N/A,,Clear,280,2012-10-26 17:53:00
12:53 PM,30.9,17.1,57,30.38,10.0,WSW,10.4,-,N/A,,Clear,240,2012-10-26 18:53:00
1:53 PM,30.9,15.1,52,30.34,10.0,WNW,5.8,-,N/A,,Clear,290,2012-10-26 19:53:00
2:53 PM,30.9,17.1,57,30.34,10.0,NW,8.1,-,N/A,,Clear,310,2012-10-26 20:53:00
3:53 PM,28.9,15.1,56,30.36,10.0,WNW,9.2,17.3,N/A,,Partly Cloudy,300,2012-10-26 21:53:00
4:53 PM,28.0,16.0,61,30.35,10.0,WSW,6.9,-,N/A,,Clear,240,2012-10-26 22:53:00
5:53 PM,26.1,16.0,66,30.33,10.0,Calm,Calm,-,N/A,,Mostly Cloudy,0,2012-10-26 23:53:00
6:53 PM,24.1,16.0,71,30.35,10.0,Calm,Calm,-,N/A,,Clear,0,2012-10-27 00:53:00
7:53 PM,23.0,18.0,81,30.33,10.0,Calm,Calm,-,N/A,,Clear,0,2012-10-27 01:53:00
8:53 PM,19.9,17.1,89,30.30,10.0,Calm,Calm,-,N/A,,Clear,0,2012-10-27 02:53:00
9:03 PM,21.2,17.6,86,30.13,10.0,Calm,Calm,-,N/A,,Scattered Clouds,0,2012-10-27 03:03:00
9:18 PM,19.4,17.6,93,30.13,10.0,Calm,Calm,-,N/A,,Mostly Cloudy,0,2012-10-27 03:18:00
9:36 PM,19.4,17.6,93,30.13,10.0,Calm,Calm,-,N/A,,Scattered Clouds,0,2012-10-27 03:36:00
9:53 PM,19.9,17.1,89,30.28,10.0,Calm,Calm,-,N/A,,Clear,0,2012-10-27 03:53:00
10:53 PM,18.0,15.1,88,30.25,10.0,Calm,Calm,-,N/A,,Clear,0,2012-10-27 04:53:00
11:53 PM,18.0,16.0,92,30.22,10.0,Calm,Calm,-,N/A,,Scattered Clouds,0,2012-10-27 05:53:00